{"data":{"norad_id":55650,"intl_designator":"2023-021Y","name":"STARLINK-5494","alt_names":[],"object_type":"PAYLOAD","status":"ACTIVE","operator":null,"country":"US","launch_date":"2023-02-17","launch_site_code":"AFWTR","launch_vehicle":null,"mission":null,"orbit_class":"UNKNOWN","rcs_meters":null,"size_class":null,"mass_kg":null,"dimensions":null,"purposes":["comms"],"wikipedia_slug":null,"has_3d_model":false,"image_url":null,"decayed_at":null,"tle_current":{"epoch":"2026-09-20T16:59:42.499392Z","epoch_age_seconds":85116,"freshness":"FRESH","line1":"1 55650U 23021Y   26263.70813078  .00000347  00000+0  36842-4 0  9992","line2":"2 55650  69.9997  52.7310 0002671 268.7651  91.3202 14.98337509198005","mean_motion":14.98337509,"eccentricity":0.0002671,"inclination_deg":69.9997,"raan_deg":52.731,"arg_perigee_deg":268.7651,"mean_anomaly_deg":91.3202,"bstar":3.6842e-5,"rev_number":19800,"period_min":96.106517480235,"perigee_km":570.17627975944,"apogee_km":573.88906039719,"semimajor_km":6950.1696700783,"source":"CELESTRAK","updated_at":"2026-09-21T09:00:33.284908Z"}}}